Regional Weather Roundup
Issued by NWS

Home | Current Version | Previous Version | Graphics & Text | Print | Product List | Glossary On
Versions: 1 2 3 4 5 6 7 8 9 10 11 12 13 14 15 16 17 18 19 20 21 22 23 24 25 26 27 28 29 30 31 32 33 34 35 36 37 38 39 40 41 42 43 44 45 46 47 48 49 50
000
ASUS45 KSLC 301710
RWRUT

UTAH REGIONAL WEATHER ROUNDUP
NATIONAL WEATHER SERVICE SALT LAKE CITY UT
1100 AM MDT MON MAY 30 2016

UTZ001>011-023>025-301800-

NORTHERN UTAH

CITY           SKY/WX    TMP DP  RH WIND       PRES   REMARKS
BRIGHAM CITY     N/A     67  45  45 CALM      30.12F
HILL AFB       SUNNY     65  42  42 VRB3      30.13S
LOGAN          SUNNY     66  48  52 CALM      30.12S
OGDEN          SUNNY     67  45  45 W6        30.11F
PROVO AIRPORT    N/A     66  45  45 SW7       30.12F
SALT LAKE CITY MOSUNNY   72  38  29 VRB5      30.10F
VERNAL         SUNNY     65  42  43 VRB5      30.12F
WENDOVER       SUNNY     66  46  48 SE8       30.13S
HEBER CITY     SUNNY     63  39  42 CALM      30.14F
WEST JORDAN    SUNNY     68  43  40 CALM      30.12F

$$

UTZ012>022-026-027-301800-

SOUTHERN/CENTRAL UTAH

CITY           SKY/WX    TMP DP  RH WIND       PRES   REMARKS
BLANDING       SUNNY     70  27  19 SE3       30.18F
BRYCE CANYON   SUNNY     66  28  24 N9        30.21F
CEDAR CITY     SUNNY     69  37  30 NW8       30.11F
DELTA          SUNNY     70  37  30 CALM      30.11S
HANKSVILLE     SUNNY     75  32  20 CALM      30.06F
MILFORD        SUNNY     70  41  34 N7        30.11F
MOAB/CYNLANDS  SUNNY     74  35  24 E5        30.03F
PRICE          SUNNY     72  28  19 NW10G22   30.12S
ST GEORGE      SUNNY     77  30  18 W3        30.00F
KANAB          SUNNY     73  32  21 S3        30.09

$$

REGIONAL REPORTS     COLORADO/ARIZONA

CITY           SKY/WX    TMP DP  RH WIND       PRES   REMARKS
CRAIG, CO      SUNNY     64  43  46 W5        30.15F
GRAND JUNCTION SUNNY     70  35  27 W8        30.06F
RIFLE          CLOUDY    65  38  36 W5        30.09F
MONTROSE       SUNNY     68  35  29 NW3       30.10F
CORTEZ         SUNNY     73  19  13 SW12      30.12F
PAGE, AZ       SUNNY     78  30  17 E7        30.02F
GRAND CANYON   MOSUNNY   68  18  14 W10       30.17S
KINGMAN        MOSUNNY   82  13   7 VRB5      30.01F
FLAGSTAFF      SUNNY     64  25  22 MISG      30.19F

$$

REGIONAL REPORTS    NEVADA/IDAHO/WYOMING

CITY           SKY/WX    TMP DP  RH WIND       PRES   REMARKS
LAS VEGAS, NV  MOSUNNY   85  29  13 NE6       29.91S
ELY            SUNNY     67  35  30 NE5       30.18F
ELKO           SUNNY     66  38  35 CALM      30.17F
POCATELLO, ID  MOSUNNY   65  40  39 SW20G25   30.13F
BURLEY         SUNNY     64  39  39 W20G29    30.13S
EVANSTON, WY   SUNNY     60  41  49 SW10      30.20F
ROCK SPRINGS   SUNNY     59  37  44 NW13G22   30.16F
KEMMERER         N/A     57  37  47 W15       30.20S

$$



USA.gov is the U.S. government's official web portal to all federal, state and local government web resources and services.